Location: Unspecified
(48.8656°N, 0.0000°E)
Time: 12:53:54
(UTC+00:00)

SR - Pass Details

Date: 01 July 2019
Orbit: 580 x 876 km, 66.7° (Epoch: 20 July)

Event Time Altitude Azimuth Distance (km) Brightness Sun altitude
Rises 02:29:27 0° 233° (SW) 2,791 - -11.0°
Reaches altitude 10° 02:31:43 10° 240° (WSW) 1,902 - -10.8°
Exits shadow 02:32:05 12° 242° (WSW) 1,766 ? -10.8°
Maximum altitude 02:35:47 44° 313° (NW) 835 ? -10.4°
Drops below altitude 10° 02:40:03 10° 26° (NNE) 1,995 ? -10.0°
Sets 02:42:30 0° 33° (NNE) 2,945 ? -9.8°
